Simultaneous Nadir Overpasses (SNOs) Predictions

Prediction of SNOs near US between AQUA and NPP Satellite Orbit:

Table of predicted SNOs near US for the next 10.0 days since TLE Epoch: 11/11/2017
Index Date (AQUA) Time (AQUA) AQUA Lat,Lon Date (NPP) Time (NPP) NPP Lat,Lon Distance(km) Time Diff (sec)
1 11/11/2017 06:30:10 46.35, -65.03 11/11/2017 06:31:01 46.77, -67.12 166.28 51
2 11/11/2017 08:08:03 49.92, -88.33 11/11/2017 08:11:27 50.45, -90.92 193.49 204
3 11/11/2017 09:46:56 49.93,-113.05 11/11/2017 09:52:55 50.56,-116.25 237.84 359
4 11/13/2017 19:06:14 49.96, -92.55 11/13/2017 19:01:44 49.62, -94.46 142.54 270
5 11/13/2017 20:45:07 49.95,-117.27 11/13/2017 20:43:12 49.51,-119.79 187.87 115
6 11/16/2017 08:34:57 20.05,-101.88 11/16/2017 08:26:37 19.58,-102.25 64.82 500
7 11/16/2017 10:11:28 28.60,-124.52 11/16/2017 10:05:30 28.77,-125.28 76.51 358
8 11/19/2017 07:18:40 49.89, -75.99 11/19/2017 07:20:42 50.33, -78.30 171.36 122
9 11/19/2017 08:57:33 49.89,-100.71 11/19/2017 09:02:09 50.49,-103.60 215.83 276




NCC Satellite Simultaneous Nadir Overpasses (SNOs) Prediction Service
